EW8839 Weather Reports


time (UTC)temp
C
wind
direction
speed
KPH
gust
KPH
rain 1hr
cm
rain 24hr
cm
rain mn
cm
humidity
%
barometer
mb
20260504175053 21 235 0.0 27.4 0.00 0.00 0.00 38 1010.6
20260504174551 21 212 3.2 19.3 0.00 0.00 0.00 41 1010.5
20260504174003 21 115 6.4 19.3 0.00 0.00 0.00 39 1010.8
20260504173521 21 179 1.6 19.3 0.00 0.00 0.00 39 1010.7
20260504173038 21 247 3.2 19.3 0.00 0.00 0.00 39 1010.7
20260504172550 20 107 1.6 12.9 0.00 0.00 0.00 40 1010.7
20260504172054 20 180 0.0 22.5 0.00 0.00 0.00 41 1010.8
20260504171553 20 146 6.4 24.1 0.00 0.00 0.00 39 1011.0
20260504171005 20 213 1.6 17.7 0.00 0.00 0.00 42 1011.1
20260504170518 20 177 1.6 17.7 0.00 0.00 0.00 41 1011.1
20260504151031 18 157 3.2 17.7 0.00 0.00 0.00 51 1012.4
20260504150545 18 148 1.6 12.9 0.00 0.00 0.00 50 1012.4
20260504141042 16 159 1.6 12.9 0.00 0.00 0.00 60 1012.6
20260504140553 16 151 1.6 14.5 0.00 0.00 0.00 60 1012.6
20260504140103 16 100 1.6 14.5 0.00 0.00 0.00 60 1012.7
20260504130604 15 154 0.0 11.3 0.00 0.00 0.00 64 1013.2
20260504110544 8 154 0.0 0.0 0.00 0.00 0.00 82 1014.1
20260504100525 8 190 0.0 8.0 0.00 0.00 0.00 77 1014.1
20260504081549 9 153 0.0 3.2 0.00 0.00 0.00 71 1013.7
20260504081005 8 188 0.0 0.0 0.00 0.00 0.00 71 1013.7
20260504080520 8 159 0.0 3.2 0.00 0.00 0.00 71 1013.8
20260504050556 8 167 0.0 3.2 0.00 0.00 0.00 67 1013.4
20260504050113 7 166 0.0 3.2 0.00 0.00 0.00 67 1013.4
20260504045600 7 167 0.0 0.0 0.00 0.00 0.00 67 1013.4
20260504045015 7 167 0.0 0.0 0.00 0.00 0.00 68 1013.3
20260504044535 7 167 0.0 0.0 0.00 0.00 0.00 68 1013.3
20260504044047 7 167 0.0 0.0 0.00 0.00 0.00 67 1013.2
20260504043604 7 167 0.0 0.0 0.00 0.00 0.00 67 1013.2
20260504043016 8 167 0.0 0.0 0.00 0.00 0.00 65 1013.1
20260504042533 8 167 0.0 0.0 0.00 0.00 0.00 64 1013.0
20260504042049 8 167 0.0 0.0 0.00 0.00 0.00 64 1013.0
20260504041553 8 167 0.0 0.0 0.00 0.00 0.00 64 1013.0
20260504041100 8 167 0.0 0.0 0.00 0.00 0.00 64 1012.9
20260504040559 8 167 0.0 0.0 0.00 0.00 0.00 64 1012.9
20260504040016 8 167 0.0 0.0 0.00 0.00 0.00 63 1012.9
20260504035532 8 167 0.0 0.0 0.00 0.00 0.00 63 1012.8
20260504035044 8 167 0.0 0.0 0.00 0.00 0.00 63 1012.8
20260504034615 8 168 0.0 0.0 0.00 0.00 0.00 63 1012.8
20260504034001 8 167 0.0 0.0 0.00 0.00 0.00 64 1012.8
20260504033504 8 167 0.0 0.0 0.00 0.00 0.00 63 1012.8
20260504033020 8 168 0.0 0.0 0.00 0.00 0.00 63 1012.7
20260504032540 8 168 0.0 0.0 0.00 0.00 0.00 63 1012.7
20260504032053 8 168 0.0 1.6 0.00 0.00 0.00 63 1012.6
20260504031507 8 168 0.0 1.6 0.00 0.00 0.00 62 1012.6
20260504031023 8 167 0.0 1.6 0.00 0.00 0.00 63 1012.6
20260504030541 8 167 0.0 0.0 0.00 0.00 0.00 61 1012.6
20260504030114 8 167 0.0 0.0 0.00 0.00 0.00 61 1012.7
20260504025512 8 167 0.0 0.0 0.00 0.00 0.00 61 1012.7
20260504025029 8 168 0.0 0.0 0.00 0.00 0.00 61 1012.7
20260504024549 8 167 0.0 0.0 0.00 0.00 0.00 61 1012.7
20260504024101 9 167 0.0 0.0 0.00 0.00 0.00 60 1012.7
20260504023502 9 167 0.0 0.0 0.00 0.00 0.00 59 1012.7
20260504023019 9 167 0.0 1.6 0.00 0.00 0.00 59 1012.7
20260504022535 9 167 0.0 3.2 0.00 0.00 0.00 58 1012.7
20260504022050 9 167 0.0 3.2 0.00 0.00 0.00 57 1012.7
20260504021502 10 168 0.0 0.0 0.00 0.00 0.00 57 1012.6
20260504021019 10 168 0.0 3.2 0.00 0.00 0.00 57 1012.6
20260504020537 10 169 0.0 3.2 0.00 0.00 0.00 55 1012.6
20260504020040 10 169 0.0 1.6 0.00 0.00 0.00 55 1012.6
20260504015557 10 168 0.0 0.0 0.00 0.00 0.00 55 1012.7
20260504015100 10 169 0.0 0.0 0.00 0.00 0.00 54 1012.6
20260504014602 10 169 0.0 0.0 0.00 0.00 0.00 55 1012.6
20260504014020 11 169 0.0 0.0 0.00 0.00 0.00 53 1012.4
20260504013531 11 169 0.0 0.0 0.00 0.00 0.00 52 1012.5
20260504013050 11 169 0.0 1.6 0.00 0.00 0.00 52 1012.4
20260504012550 10 166 0.0 1.6 0.00 0.00 0.00 52 1012.4
20260504012053 10 166 0.0 0.0 0.00 0.00 0.00 53 1012.3
20260504011556 10 166 0.0 4.8 0.00 0.00 0.00 53 1012.2
20260504011012 10 166 0.0 4.8 0.00 0.00 0.00 53 1012.2
20260504010526 11 194 0.0 3.2 0.00 0.00 0.00 54 1012.1
20260504010044 11 194 0.0 3.2 0.00 0.00 0.00 52 1012.0
20260504005600 11 194 0.0 3.2 0.00 0.00 0.00 51 1011.9
20260504005014 12 194 0.0 1.6 0.00 0.00 0.00 49 1011.8
20260504004530 12 194 0.0 1.6 0.00 0.00 0.00 46 1011.7
20260504004047 12 194 0.0 1.6 0.00 0.00 0.00 45 1011.7
20260504003501 12 194 0.0 1.6 0.00 0.00 0.00 44 1011.7
20260504003003 13 194 0.0 0.0 0.00 0.00 0.00 44 1011.5
20260504002524 13 194 0.0 0.0 0.00 0.00 0.00 44 1011.5
20260504002036 13 194 0.0 0.0 0.00 0.00 0.00 43 1011.4
20260504001553 13 194 0.0 0.0 0.00 0.00 0.00 42 1011.3
20260504001007 13 194 0.0 3.2 0.00 0.00 0.00 41 1011.3
20260504000523 13 194 0.0 3.2 0.00 0.00 0.00 41 1011.4
20260504000047 13 195 0.0 3.2 0.00 0.00 0.00 41 1011.4
20260503235555 13 194 0.0 4.8 0.00 0.00 0.00 40 1011.3
20260503235057 14 179 0.0 3.2 0.00 0.00 0.00 39 1011.3
20260503234604 14 173 0.0 1.6 0.00 0.00 0.00 39 1011.2
20260503234014 14 173 0.0 6.4 0.00 0.00 0.00 39 1011.1
20260503233534 14 171 0.0 8.0 0.00 0.00 0.00 39 1011.0
20260503233047 15 254 1.6 8.0 0.00 0.00 0.00 38 1010.9
20260503232500 15 191 0.0 6.4 0.00 0.00 0.00 38 1010.9
20260503232017 15 206 0.0 9.7 0.00 0.00 0.00 37 1010.9
20260503231533 15 181 0.0 8.0 0.00 0.00 0.00 37 1010.8
20260503231050 15 248 0.0 8.0 0.00 0.00 0.00 37 1010.8
20260503230553 15 220 0.0 6.4 0.00 0.00 0.00 36 1010.8
20260503230056 15 230 1.6 6.4 0.00 0.00 0.00 36 1010.8
20260503225503 15 198 0.0 8.0 0.00 0.00 0.00 36 1010.8
20260503225023 15 273 1.6 8.0 0.00 0.00 0.00 35 1010.8
20260503224537 15 263 1.6 9.7 0.00 0.00 0.00 35 1010.9
20260503224054 15 219 0.0 11.3 0.00 0.00 0.00 36 1010.8
20260503223557 15 225 1.6 11.3 0.00 0.00 0.00 36 1010.8
20260503223100 15 248 0.0 6.4 0.00 0.00 0.00 36 1010.7
20260503222601 15 197 1.6 12.9 0.00 0.00 0.00 35 1010.7
20260503222015 15 234 0.0 11.3 0.00 0.00 0.00 35 1010.7
20260503221528 15 194 1.6 6.4 0.00 0.00 0.00 36 1010.8
20260503221046 15 215 0.0 11.3 0.00 0.00 0.00 36 1010.7
20260503220603 15 179 3.2 16.1 0.00 0.00 0.00 35 1010.7
20260503220021 15 204 0.0 11.3 0.00 0.00 0.00 36 1010.7
20260503215535 15 246 3.2 12.9 0.00 0.00 0.00 35 1010.8
20260503215050 15 224 1.6 12.9 0.00 0.00 0.00 35 1010.8
20260503214553 15 207 3.2 19.3 0.00 0.00 0.00 35 1010.7
20260503214056 15 261 8.0 19.3 0.00 0.00 0.00 35 1010.8
20260503213510 15 249 1.6 9.7 0.00 0.00 0.00 36 1010.7
20260503213026 15 289 0.0 17.7 0.00 0.00 0.00 36 1010.6
20260503212544 15 224 4.8 24.1 0.00 0.00 0.00 36 1010.7
20260503212100 15 257 4.8 24.1 0.00 0.00 0.00 35 1010.8
20260503211514 15 157 1.6 8.0 0.00 0.00 0.00 36 1010.6
20260503211030 15 271 3.2 19.3 0.00 0.00 0.00 35 1010.7
20260503210546 15 248 3.2 16.1 0.00 0.00 0.00 35 1010.7
20260503210049 15 220 4.8 17.7 0.00 0.00 0.00 35 1010.8
20260503205552 15 232 6.4 24.1 0.00 0.00 0.00 35 1010.6
20260503205006 15 232 4.8 29.0 0.00 0.00 0.00 36 1010.7
20260503204520 15 264 6.4 16.1 0.00 0.00 0.00 35 1010.8
20260503204036 15 228 3.2 14.5 0.00 0.00 0.00 36 1010.8
20260503203538 15 236 3.2 14.5 0.00 0.00 0.00 36 1010.8
20260503203057 14 213 1.6 14.5 0.00 0.00 0.00 37 1010.8
20260503202557 14 252 3.2 22.5 0.00 0.00 0.00 36 1010.9
20260503202011 14 232 1.6 20.9 0.00 0.00 0.00 37 1010.8
20260503201527 14 227 3.2 19.3 0.00 0.00 0.00 36 1010.9
20260503201047 14 217 4.8 19.3 0.00 0.00 0.00 37 1010.9
20260503200545 15 209 0.0 17.7 0.00 0.00 0.00 36 1010.9
20260503200049 15 293 4.8 20.9 0.00 0.00 0.00 36 1010.9
20260503195551 15 243 4.8 20.9 0.00 0.00 0.00 36 1010.9
20260503195004 14 281 0.0 14.5 0.00 0.00 0.00 37 1010.9
20260503194520 15 234 3.2 11.3 0.00 0.00 0.00 36 1010.9
20260503194038 14 325 0.0 12.9 0.00 0.00 0.00 37 1010.9
20260503193541 14 282 0.0 19.3 0.00 0.00 0.00 38 1011.0
20260503193057 14 217 8.0 16.1 0.00 0.00 0.00 37 1011.1
20260503192559 14 223 4.8 16.1 0.00 0.00 0.00 36 1011.0
20260503192101 14 249 3.2 16.1 0.00 0.00 0.00 37 1011.2
20260503191515 13 327 3.2 25.7 0.00 0.00 0.00 38 1011.1
20260503191033 13 217 6.4 25.7 0.00 0.00 0.00 36 1011.3
20260503190549 13 206 3.2 19.3 0.00 0.00 0.00 37 1011.3
20260503185605 13 231 4.8 16.1 0.00 0.00 0.00 36 1011.4
20260503185103 13 213 1.6 30.6 0.00 0.00 0.00 38 1011.4
20260503184519 13 217 4.8 29.0 0.00 0.00 0.00 39 1011.5
20260503184035 13 272 1.6 17.7 0.00 0.00 0.00 38 1011.4
20260503183551 13 285 1.6 11.3 0.00 0.00 0.00 39 1011.6
20260503183005 13 227 3.2 14.5 0.00 0.00 0.00 38 1011.7
20260503182522 13 218 3.2 14.5 0.00 0.00 0.00 38 1011.7
20260503182039 13 235 1.6 14.5 0.00 0.00 0.00 40 1011.7
20260503181558 13 221 3.2 20.9 0.00 0.00 0.00 41 1011.7
20260503181059 13 244 8.0 20.9 0.00 0.00 0.00 40 1011.8
20260503180606 13 302 0.0 11.3 0.00 0.00 0.00 41 1011.6
20260503180057 13 264 4.8 16.1 0.00 0.00 0.00 41 1011.8
20260503175557 12 235 4.8 20.9 0.00 0.00 0.00 43 1011.9